Cloud_Cover
100 100 100 100 100 100 100 100 100 100 100 100 100 100 100 100 100 99 67 100 88 100 63 59 52 21 8 29 5 5 2 5 5 12 5 0 0 0
100 100 100 100 100 100 100 100 100 100 100 100 100 100 100 100 100 100 90 86 99 100 100 100 100 27 7 85 19 5 5 3 5 5 4 5 2 4
100 100 100 100 100 100 100 100 100 100 100 100 100 100 100 100 100 100 100 99 100 96 100 100 100 96 99 85 100 78 5 5 7 8 15 52 82 12
100 100 100 100 100 100 100 100 100 100 100 100 100 100 100 100 100 100 100 100 100 100 100 100 100 99 100 100 100 100 100 98 70 95 100 82 89 72
100 100 100 100 100 100 100 100 100 100 100 100 100 100 100 100 100 100 100 100 100 100 100 100 100 100 100 100 87 100 100 100 100 100 98 100 37 97
100 100 100 100 100 100 100 100 100 100 100 100 100 100 100 100 100 100 100 100 100 100 100 100 100 100 100 100 74 64 100 99 83 99 100 100 96 59
100 100 100 100 100 100 100 100 100 100 100 100 100 100 100 100 100 100 100 100 100 100 100 100 100 100 100 100 100 99 100 100 100 99 100 100 97 100
100 100 100 100 100 100 100 100 100 100 100 100 100 100 100 100 100 100 100 100 100 100 100 100 100 100 98 87 100 78 100 100 100 100 99 51 76 100
100 70 78 100 100 100 100 100 100 100 100 100 100 100 100 100 100 100 100 100 100 100 94 100 98 100 100 100 80 100 100 100 100 100 100 100 100 100
22 96 100 10 51 100 100 100 100 100 100 100 100 100 100 100 100 100 100 100 100 100 100 100 100 100 100 100 100 100 100 100 100 100 100 100 100 100
71 65 17 76 57 5 24 92 100 100 100 100 100 100 100 100 100 34 26 94 100 100 100 100 100 100 100 100 100 100 100 100 100 100 100 100 100 100
9 5 5 5 5 5 60 15 5 5 5 5 10 85 100 100 100 100 100 100 100 98 100 93 100 100 100 100 100 100 100 100 100 100 100 100 100 100
90 26 5 5 5 5 13 70 58 24 20 14 5 5 5 2 4 17 61 82 100 100 100 100 100 97 100 85 95 75 73 74 1 14 73 89 67 92
100 91 52 18 5 5 5 43 66 72 69 6 5 5 5 5 4 1 0 0 0 0 0 0 1 1 1 2 0 3 5 5 5 5 5 5 5 5
62 81 97 80 6 5 5 51 91 44 6 5 5 5 5 1 5 5 4 4 2 0 0 0 0 0 0 0 0 0 0 2 5 5 5 5 17 9
62 97 100 100 94 8 62 96 82 5 5 5 5 5 5 5 5 5 2 0 0 0 0 0 0 0 0 0 0 0 0 4 0 0 0 0 0 0
7 39 63 91 100 100 100 95 90 74 37 6 5 5 5 5 5 5 5 5 5 5 5 2 0 0 0 0 0 0 2 4 4 0 0 2 4 2
100 98 96 74 100 100 100 98 99 45 90 74 48 5 5 5 5 5 5 3 0 0 0 0 0 0 0 0 0 0 0 5 0 2 5 5 72 82
100 100 89 71 88 100 100 100 97 98 100 85 49 46 5 5 5 5 5 5 5 5 0 0 0 0 1 0 0 0 5 3 5 5 5 5 5 37
98 100 77 81 94 100 99 100 100 100 98 48 75 68 5 5 5 5 13 35 73 5 5 4 2 4 17 20 46 5 5 53 48 5 5 8 5 5
99 99 92 78 86 93 97 100 100 100 92 74 91 29 5 5 7 19 77 90 57 7 5 5 5 46 100 100 96 5 5 5 36 91 51 100 98 98
100 100 100 100 95 100 100 100 100 100 96 94 92 75 55 16 44 63 99 100 98 71 61 5 12 84 100 90 65 32 5 5 3 5 53 85 99 100
100 98 95 100 100 100 100 100 100 100 100 100 94 91 83 53 86 100 100 100 99 95 67 6 68 65 90 100 99 93 80 12 18 8 4 5 99 100